Regional Weather Roundup
Issued by NWS

Home | Current Version | Previous Version | Graphics & Text | Print | Product List | Glossary On
Versions: 1 2 3 4 5 6 7 8 9 10 11 12 13 14 15 16 17 18 19 20 21 22 23 24 25 26 27 28 29 30 31 32 33 34 35 36 37 38 39 40 41 42 43 44 45 46 47 48 49 50
207
ASUS43 KLMK 080510
RWRKY
KENTUCKY REGIONAL WEATHER ROUNDUP
NATIONAL WEATHER SERVICE LOUISVILLE KY
1200 AM EST MON FEB 08 2016

NOTE "FAIR" INDICATES FEW OR NO CLOUDS BELOW 12,000 FEET
WITH NO SIGNIFICANT WEATHER AND/OR OBSTRUCTIONS TO VISIBILITY.

KYZ001>023-026-027-061>063-070>075-080600-
WESTERN AND SOUTH CENTRAL KENTUCKY

CITY           SKY/WX    TMP DP  RH WIND       PRES   REMARKS
PADUCAH        CLOUDY    45  33  63 W7        29.88F
HENDERSON      CLOUDY    45  30  57 NW10      29.86S
OWENSBORO      CLOUDY    46  34  63 W12       29.84F
HOPKINSVILLE   MOCLDY    47  30  50 SW12      29.85F
BOWLING GREEN  CLOUDY    48  25  40 SW8       29.84F
GLASGOW        CLOUDY    44  23  43 SW3       29.84F
$$

KYZ024-025-028>034-038-045-046-053-080600-
NORTH CENTRAL KENTUCKY

CITY           SKY/WX    TMP DP  RH WIND       PRES   REMARKS
LOUISVILLE/SDF CLOUDY    49  24  37 SW12      29.79F
LOUISVILLE/LOU CLOUDY    49  25  39 SW7       29.80F
FORT KNOX      CLOUDY    46  26  46 SW9       29.78F
$$

KYZ035>037-039>044-047>052-055>060-089>105-080600-
NORTHEAST KENTUCKY

CITY           SKY/WX    TMP DP  RH WIND       PRES   REMARKS
LEXINGTON      CLOUDY    43  23  45 S9        29.81F
COVINGTON      CLOUDY    45  22  40 S9        29.76F
FRANKFORT      CLOUDY    44  22  41 SW7       29.79F
$$

KYZ054-064>069-076>088-106>120-080600-
SOUTHEAST KENTUCKY

CITY           SKY/WX    TMP DP  RH WIND       PRES   REMARKS
JACKSON        CLOUDY    42  20  41 SW3       29.85F
LONDON         PTCLDY    40  20  44 S5        29.86F
SOMERSET       PTCLDY    39  23  52 S5        29.88F
MIDDLESBORO    PTCLDY    30  27  86 CALM      29.91F
MONTICELLO     MOCLDY    41  23  48 W13       29.88F
$$





USA.gov is the U.S. government's official web portal to all federal, state and local government web resources and services.